Time,TemperatureF,DewpointF,PressureIn,WindDirection,WindDirectionDegrees,WindSpeedMPH,WindSpeedGustMPH,Humidity,HourlyPrecipIn,Conditions,Clouds,dailyrainin,SoftwareType,DateUTC
2013-03-28 00:03:00,34.0,21.0,30.29,ENE,73,0.0,0.0,59,0.00,,,0.01,,2013-03-28 04:03:00,
2013-03-28 00:12:00,34.0,21.0,30.29,ENE,73,0.0,0.0,59,0.00,,,0.01,,2013-03-28 04:12:00,
2013-03-28 00:23:00,34.0,22.0,30.29,ENE,73,0.0,0.0,60,0.00,,,0.01,,2013-03-28 04:23:00,
2013-03-28 00:32:00,34.0,22.0,30.28,ENE,73,0.0,0.0,61,0.00,,,0.01,,2013-03-28 04:32:00,
2013-03-28 00:42:00,34.0,22.0,30.28,ENE,73,0.0,0.0,61,0.00,,,0.01,,2013-03-28 04:42:00,
2013-03-28 00:52:00,33.0,21.0,30.28,ENE,73,0.0,0.0,61,0.00,,,0.01,,2013-03-28 04:52:00,
2013-03-28 01:02:00,33.0,21.0,30.28,ENE,73,0.0,0.0,62,0.00,,,0.01,,2013-03-28 05:02:00,
2013-03-28 01:12:00,33.0,21.0,30.28,ENE,73,0.0,0.0,62,0.00,,,0.01,,2013-03-28 05:12:00,
2013-03-28 01:22:00,33.0,21.0,30.28,ENE,73,0.0,0.0,62,0.00,,,0.01,,2013-03-28 05:22:00,
2013-03-28 01:32:00,33.0,21.0,30.28,ENE,73,0.0,0.0,62,0.00,,,0.01,,2013-03-28 05:32:00,
2013-03-28 01:42:00,33.0,21.0,30.28,ENE,73,0.0,0.0,62,0.00,,,0.01,,2013-03-28 05:42:00,
2013-03-28 01:52:00,33.0,21.0,30.27,ENE,73,0.0,0.0,62,0.00,,,0.01,,2013-03-28 05:52:00,
2013-03-28 02:02:00,33.0,21.0,30.27,ENE,73,0.0,0.0,62,0.00,,,0.01,,2013-03-28 06:02:00,
2013-03-28 02:12:00,33.0,21.0,30.27,ENE,73,0.0,0.0,62,0.00,,,0.01,,2013-03-28 06:12:00,
2013-03-28 02:22:00,33.0,21.0,30.27,ENE,73,0.0,0.0,62,0.00,,,0.01,,2013-03-28 06:22:00,
2013-03-28 02:33:00,33.0,21.0,30.27,ENE,73,0.0,0.0,62,0.00,,,0.01,,2013-03-28 06:33:00,
2013-03-28 02:52:00,32.0,21.0,30.27,ENE,73,0.0,0.0,63,0.00,,,0.01,,2013-03-28 06:52:00,
2013-03-28 03:02:00,32.0,21.0,30.27,ENE,73,0.0,0.0,63,0.00,,,0.01,,2013-03-28 07:02:00,
2013-03-28 03:13:00,32.0,21.0,30.27,ENE,73,0.0,0.0,63,0.00,,,0.01,,2013-03-28 07:13:00,
2013-03-28 03:22:00,32.0,20.0,30.26,ENE,73,0.0,0.0,62,0.00,,,0.01,,2013-03-28 07:22:00,
2013-03-28 03:32:00,32.0,20.0,30.26,ENE,73,0.0,0.0,62,0.00,,,0.01,,2013-03-28 07:32:00,
2013-03-28 03:42:00,32.0,20.0,30.26,ENE,73,0.0,0.0,62,0.00,,,0.01,,2013-03-28 07:42:00,
2013-03-28 03:52:00,32.0,20.0,30.27,ENE,73,0.0,0.0,62,0.00,,,0.01,,2013-03-28 07:52:00,
2013-03-28 04:03:00,32.0,21.0,30.26,ENE,73,0.0,0.0,63,0.00,,,0.01,,2013-03-28 08:03:00,
2013-03-28 04:12:00,32.0,21.0,30.26,ENE,73,0.0,0.0,63,0.00,,,0.01,,2013-03-28 08:12:00,
2013-03-28 04:21:00,32.0,21.0,30.27,ENE,73,0.0,0.0,64,0.00,,,0.01,,2013-03-28 08:21:00,
2013-03-28 04:33:00,32.0,21.0,30.27,ENE,73,0.0,0.0,64,0.00,,,0.01,,2013-03-28 08:33:00,
2013-03-28 04:42:00,32.0,21.0,30.27,ENE,73,0.0,0.0,64,0.00,,,0.01,,2013-03-28 08:42:00,
2013-03-28 04:52:00,32.0,21.0,30.27,ENE,73,0.0,0.0,64,0.00,,,0.01,,2013-03-28 08:52:00,
2013-03-28 05:33:00,31.0,20.0,30.27,ENE,73,0.0,0.0,64,0.00,,,0.01,,2013-03-28 09:33:00,
2013-03-28 05:42:00,31.0,20.0,30.27,ENE,73,0.0,0.0,64,0.00,,,0.01,,2013-03-28 09:42:00,
2013-03-28 05:52:00,30.0,20.0,30.27,ENE,73,0.0,0.0,65,0.00,,,0.01,,2013-03-28 09:52:00,
2013-03-28 06:03:00,30.0,20.0,30.28,ENE,73,0.0,0.0,66,0.00,,,0.01,,2013-03-28 10:03:00,
2013-03-28 06:12:00,30.0,20.0,30.28,ENE,73,0.0,0.0,66,0.00,,,0.01,,2013-03-28 10:12:00,
2013-03-28 06:22:00,30.0,20.0,30.28,ENE,73,0.0,0.0,65,0.00,,,0.01,,2013-03-28 10:22:00,
2013-03-28 06:33:00,30.0,19.0,30.28,ENE,73,0.0,0.0,63,0.00,,,0.01,,2013-03-28 10:33:00,
2013-03-28 06:42:00,30.0,19.0,30.28,ENE,73,0.0,0.0,63,0.00,,,0.01,,2013-03-28 10:42:00,
2013-03-28 06:52:00,30.0,19.0,30.29,ENE,73,0.0,0.0,63,0.00,,,0.01,,2013-03-28 10:52:00,
2013-03-28 07:03:00,30.0,19.0,30.29,ENE,73,0.0,0.0,64,0.00,,,0.01,,2013-03-28 11:03:00,
2013-03-28 07:12:00,30.0,19.0,30.29,ENE,73,0.0,0.0,64,0.00,,,0.01,,2013-03-28 11:12:00,
2013-03-28 07:23:00,30.0,20.0,30.29,ENE,73,0.0,0.0,66,0.00,,,0.01,,2013-03-28 11:23:00,
2013-03-28 07:32:00,30.0,19.0,30.29,ENE,73,0.0,0.0,64,0.00,,,0.01,,2013-03-28 11:32:00,
2013-03-28 07:42:00,30.0,19.0,30.29,ENE,73,0.0,0.0,64,0.00,,,0.01,,2013-03-28 11:42:00,
2013-03-28 07:52:00,30.0,19.0,30.29,ENE,73,0.0,0.0,64,0.00,,,0.01,,2013-03-28 11:52:00,
2013-03-28 08:02:00,30.0,19.0,30.30,ENE,73,0.0,0.0,64,0.00,,,0.01,,2013-03-28 12:02:00,
2013-03-28 08:12:00,30.0,19.0,30.30,ENE,73,0.0,0.0,64,0.00,,,0.01,,2013-03-28 12:12:00,
2013-03-28 08:22:00,30.0,19.0,30.30,ENE,73,0.0,0.0,64,0.00,,,0.01,,2013-03-28 12:22:00,
2013-03-28 08:32:00,32.0,21.0,30.32,ENE,73,0.0,0.0,64,0.00,,,0.01,,2013-03-28 12:32:00,
2013-03-28 08:42:00,32.0,21.0,30.32,ENE,73,0.0,0.0,64,0.00,,,0.01,,2013-03-28 12:42:00,
2013-03-28 08:52:00,32.0,21.0,30.32,ENE,73,0.0,0.0,64,0.00,,,0.01,,2013-03-28 12:52:00,
2013-03-28 09:02:00,33.0,21.0,30.32,South,171,0.0,1.0,62,0.00,,,0.01,,2013-03-28 13:02:00,
2013-03-28 09:12:00,33.0,21.0,30.32,South,171,0.0,1.0,62,0.00,,,0.01,,2013-03-28 13:12:00,
2013-03-28 09:22:00,33.0,22.0,30.32,NE,39,0.0,3.0,63,0.00,,,0.01,,2013-03-28 13:22:00,
2013-03-28 09:32:00,34.0,22.0,30.32,SSW,205,0.0,0.0,62,0.00,,,0.01,,2013-03-28 13:32:00,
2013-03-28 09:42:00,34.0,22.0,30.32,SSW,205,0.0,0.0,62,0.00,,,0.01,,2013-03-28 13:42:00,
2013-03-28 09:52:00,35.0,23.0,30.33,ESE,123,0.0,3.0,62,0.00,,,0.01,,2013-03-28 13:52:00,
2013-03-28 10:02:00,37.0,23.0,30.32,ESE,111,0.0,3.0,56,0.00,,,0.01,,2013-03-28 14:02:00,
2013-03-28 10:12:00,37.0,23.0,30.32,ESE,111,0.0,3.0,56,0.00,,,0.01,,2013-03-28 14:12:00,
2013-03-28 10:22:00,37.0,24.0,30.32,East,83,0.0,1.0,58,0.00,,,0.01,,2013-03-28 14:22:00,
2013-03-28 10:33:00,38.0,23.0,30.32,East,89,0.0,3.0,55,0.00,,,0.01,,2013-03-28 14:33:00,
2013-03-28 10:42:00,38.0,23.0,30.32,East,89,0.0,3.0,55,0.00,,,0.01,,2013-03-28 14:42:00,
2013-03-28 10:52:00,40.0,24.0,30.32,SSE,153,0.0,4.0,53,0.00,,,0.01,,2013-03-28 14:52:00,
2013-03-28 11:02:00,40.0,24.0,30.32,SSE,153,0.0,4.0,53,0.00,,,0.01,,2013-03-28 15:02:00,
2013-03-28 11:12:00,40.0,24.0,30.32,SSE,153,0.0,4.0,53,0.00,,,0.01,,2013-03-28 15:12:00,
2013-03-28 11:22:00,40.0,24.0,30.32,SSE,153,0.0,4.0,53,0.00,,,0.01,,2013-03-28 15:22:00,
2013-03-28 11:33:00,42.0,22.0,30.32,NNE,25,0.0,6.0,45,0.00,,,0.00,,2013-03-28 15:33:00,
2013-03-28 11:43:00,42.0,22.0,30.32,NNE,25,0.0,6.0,45,0.00,,,0.00,,2013-03-28 15:43:00,
2013-03-28 11:53:00,42.0,20.0,30.32,West,267,0.0,9.0,41,0.00,,,0.00,,2013-03-28 15:53:00,
2013-03-28 12:03:00,43.0,20.0,30.32,ESE,116,0.0,5.0,40,0.00,,,0.00,,2013-03-28 16:03:00,
2013-03-28 12:12:00,43.0,20.0,30.32,ESE,116,0.0,5.0,40,0.00,,,0.00,,2013-03-28 16:12:00,
2013-03-28 12:23:00,45.0,24.0,30.32,WSW,244,4.0,6.0,43,0.00,,,0.00,,2013-03-28 16:23:00,
2013-03-28 12:32:00,45.0,19.0,30.31,SW,228,0.0,8.0,35,0.00,,,0.00,,2013-03-28 16:32:00,
2013-03-28 12:42:00,45.0,19.0,30.31,SW,228,0.0,8.0,35,0.00,,,0.00,,2013-03-28 16:42:00,
2013-03-28 12:52:00,47.0,23.0,30.31,SE,145,4.0,7.0,38,0.00,,,0.00,,2013-03-28 16:52:00,
2013-03-28 13:02:00,47.0,17.0,30.30,SSE,161,1.0,5.0,30,0.00,,,0.00,,2013-03-28 17:02:00,
2013-03-28 13:12:00,47.0,17.0,30.30,SSE,161,1.0,5.0,30,0.00,,,0.00,,2013-03-28 17:12:00,
2013-03-28 13:22:00,47.0,17.0,30.30,SSW,204,1.0,9.0,30,0.00,,,0.00,,2013-03-28 17:22:00,
2013-03-28 13:32:00,48.0,16.0,30.30,SSW,200,4.0,10.0,27,0.00,,,0.00,,2013-03-28 17:32:00,
2013-03-28 13:42:00,48.0,16.0,30.30,SSW,200,4.0,10.0,27,0.00,,,0.00,,2013-03-28 17:42:00,
2013-03-28 13:52:00,49.0,16.0,30.29,SW,223,17.0,18.0,27,0.00,,,0.00,,2013-03-28 17:52:00,
2013-03-28 14:02:00,51.0,19.0,30.29,ESE,113,0.0,12.0,28,0.00,,,0.00,,2013-03-28 18:02:00,
2013-03-28 14:12:00,51.0,19.0,30.29,ESE,113,0.0,12.0,28,0.00,,,0.00,,2013-03-28 18:12:00,
2013-03-28 14:22:00,51.0,16.0,30.29,ENE,58,4.0,6.0,25,0.00,,,0.00,,2013-03-28 18:22:00,
2013-03-28 14:32:00,50.0,16.0,30.29,ESE,111,0.0,3.0,25,0.00,,,0.00,,2013-03-28 18:32:00,
2013-03-28 14:42:00,50.0,16.0,30.29,ESE,111,0.0,3.0,25,0.00,,,0.00,,2013-03-28 18:42:00,
2013-03-28 14:52:00,51.0,15.0,30.29,SSW,208,3.0,6.0,23,0.00,,,0.00,,2013-03-28 18:52:00,
2013-03-28 15:02:00,52.0,21.0,30.28,SSW,209,3.0,3.0,29,0.00,,,0.00,,2013-03-28 19:02:00,
2013-03-28 15:12:00,52.0,21.0,30.28,SSW,209,3.0,3.0,29,0.00,,,0.00,,2013-03-28 19:12:00,
2013-03-28 15:22:00,52.0,21.0,30.28,SSW,209,3.0,3.0,29,0.00,,,0.00,,2013-03-28 19:22:00,
2013-03-28 15:33:00,52.0,16.0,30.27,SSW,202,1.0,4.0,24,0.00,,,0.00,,2013-03-28 19:33:00,
2013-03-28 15:43:00,52.0,16.0,30.27,SSW,202,1.0,4.0,24,0.00,,,0.00,,2013-03-28 19:43:00,
2013-03-28 15:52:00,52.0,18.0,30.26,SSW,198,1.0,8.0,26,0.00,,,0.00,,2013-03-28 19:52:00,
2013-03-28 16:03:00,53.0,17.0,30.25,ENE,74,3.0,8.0,24,0.00,,,0.00,,2013-03-28 20:03:00,
2013-03-28 16:12:00,53.0,17.0,30.25,ENE,74,3.0,8.0,24,0.00,,,0.00,,2013-03-28 20:12:00,
2013-03-28 16:22:00,52.0,20.0,30.25,South,183,0.0,5.0,28,0.00,,,0.00,,2013-03-28 20:22:00,
2013-03-28 16:33:00,52.0,20.0,30.25,South,183,0.0,5.0,28,0.00,,,0.00,,2013-03-28 20:33:00,
2013-03-28 16:42:00,52.0,20.0,30.25,South,183,0.0,5.0,28,0.00,,,0.00,,2013-03-28 20:42:00,
2013-03-28 16:52:00,52.0,19.0,30.24,East,96,0.0,4.0,27,0.00,,,0.00,,2013-03-28 20:52:00,
2013-03-28 17:03:00,52.0,19.0,30.24,East,96,0.0,4.0,27,0.00,,,0.00,,2013-03-28 21:03:00,
2013-03-28 17:12:00,52.0,19.0,30.24,East,96,0.0,4.0,27,0.00,,,0.00,,2013-03-28 21:12:00,
2013-03-28 17:22:00,52.0,19.0,30.24,East,96,0.0,4.0,27,0.00,,,0.00,,2013-03-28 21:22:00,
2013-03-28 17:33:00,52.0,19.0,30.24,South,190,6.0,6.0,27,0.00,,,0.00,,2013-03-28 21:33:00,
2013-03-28 17:43:00,52.0,19.0,30.24,South,190,6.0,6.0,27,0.00,,,0.00,,2013-03-28 21:43:00,
2013-03-28 17:53:00,51.0,18.0,30.24,ESE,106,1.0,1.0,27,0.00,,,0.00,,2013-03-28 21:53:00,
2013-03-28 18:03:00,50.0,20.0,30.25,SW,228,1.0,3.0,30,0.00,,,0.00,,2013-03-28 22:03:00,
2013-03-28 18:12:00,50.0,20.0,30.25,SW,228,1.0,3.0,30,0.00,,,0.00,,2013-03-28 22:12:00,
2013-03-28 18:23:00,49.0,18.0,30.24,NNW,329,3.0,3.0,29,0.00,,,0.00,,2013-03-28 22:23:00,
2013-03-28 18:32:00,48.0,19.0,30.25,WSW,250,0.0,0.0,31,0.00,,,0.00,,2013-03-28 22:32:00,
2013-03-28 18:42:00,48.0,19.0,30.25,WSW,250,0.0,0.0,31,0.00,,,0.00,,2013-03-28 22:42:00,
2013-03-28 18:52:00,47.0,20.0,30.25,SSE,150,0.0,0.0,34,0.00,,,0.00,,2013-03-28 22:52:00,
2013-03-28 19:03:00,46.0,19.0,30.25,ENE,67,0.0,0.0,33,0.00,,,0.00,,2013-03-28 23:03:00,
2013-03-28 19:12:00,46.0,19.0,30.25,ENE,67,0.0,0.0,33,0.00,,,0.00,,2013-03-28 23:12:00,
2013-03-28 19:22:00,46.0,20.0,30.26,ENE,70,0.0,2.0,35,0.00,,,0.00,,2013-03-28 23:22:00,
2013-03-28 19:32:00,45.0,20.0,30.27,West,281,0.0,0.0,37,0.00,,,0.00,,2013-03-28 23:32:00,
2013-03-28 19:42:00,45.0,20.0,30.27,West,281,0.0,0.0,37,0.00,,,0.00,,2013-03-28 23:42:00,
2013-03-28 19:52:00,45.0,20.0,30.27,SSW,212,0.0,0.0,37,0.00,,,0.00,,2013-03-28 23:52:00,
2013-03-28 20:02:00,45.0,21.0,30.27,North,5,0.0,0.0,38,0.00,,,0.00,,2013-03-29 00:02:00,
2013-03-28 20:12:00,45.0,21.0,30.27,North,5,0.0,0.0,38,0.00,,,0.00,,2013-03-29 00:12:00,
2013-03-28 20:22:00,44.0,21.0,30.28,North,5,0.0,0.0,39,0.00,,,0.00,,2013-03-29 00:22:00,
2013-03-28 20:32:00,43.0,21.0,30.28,North,5,0.0,0.0,41,0.00,,,0.00,,2013-03-29 00:32:00,
2013-03-28 20:42:00,43.0,21.0,30.28,North,5,0.0,0.0,41,0.00,,,0.00,,2013-03-29 00:42:00,
2013-03-28 20:52:00,43.0,22.0,30.29,North,5,0.0,0.0,42,0.00,,,0.00,,2013-03-29 00:52:00,
2013-03-28 21:02:00,42.0,22.0,30.29,North,5,0.0,0.0,44,0.00,,,0.00,,2013-03-29 01:02:00,
2013-03-28 21:12:00,42.0,22.0,30.29,North,5,0.0,0.0,44,0.00,,,0.00,,2013-03-29 01:12:00,
2013-03-28 21:22:00,42.0,21.0,30.29,North,5,0.0,0.0,43,0.00,,,0.00,,2013-03-29 01:22:00,
2013-03-28 21:33:00,42.0,21.0,30.29,North,5,0.0,0.0,42,0.00,,,0.00,,2013-03-29 01:33:00,
2013-03-28 21:42:00,42.0,21.0,30.29,North,5,0.0,0.0,42,0.00,,,0.00,,2013-03-29 01:42:00,
2013-03-28 21:52:00,41.0,20.0,30.29,North,5,0.0,0.0,43,0.00,,,0.00,,2013-03-29 01:52:00,
2013-03-28 22:02:00,41.0,23.0,30.29,North,5,0.0,0.0,49,0.00,,,0.00,,2013-03-29 02:02:00,
2013-03-28 22:12:00,41.0,23.0,30.29,North,5,0.0,0.0,49,0.00,,,0.00,,2013-03-29 02:12:00,
2013-03-28 22:22:00,40.0,23.0,30.30,North,5,0.0,0.0,50,0.00,,,0.00,,2013-03-29 02:22:00,
2013-03-28 22:32:00,41.0,21.0,30.30,North,5,0.0,0.0,45,0.00,,,0.00,,2013-03-29 02:32:00,
2013-03-28 22:42:00,41.0,21.0,30.30,North,5,0.0,0.0,45,0.00,,,0.00,,2013-03-29 02:42:00,
2013-03-28 22:52:00,41.0,21.0,30.30,North,5,0.0,0.0,45,0.00,,,0.00,,2013-03-29 02:52:00,
2013-03-28 23:02:00,40.0,19.0,30.31,North,5,0.0,0.0,43,0.00,,,0.00,,2013-03-29 03:02:00,
2013-03-28 23:12:00,40.0,19.0,30.31,North,5,0.0,0.0,43,0.00,,,0.00,,2013-03-29 03:12:00,
2013-03-28 23:22:00,41.0,20.0,30.31,North,5,0.0,0.0,42,0.00,,,0.00,,2013-03-29 03:22:00,
2013-03-28 23:32:00,41.0,20.0,30.31,North,5,0.0,0.0,42,0.00,,,0.00,,2013-03-29 03:32:00,
2013-03-28 23:42:00,41.0,20.0,30.31,North,5,0.0,0.0,42,0.00,,,0.00,,2013-03-29 03:42:00,
2013-03-28 23:53:00,40.0,20.0,30.30,North,5,0.0,0.0,45,0.00,,,0.00,,2013-03-29 03:53:00,